EW4504 Weather Reports


time (UTC)temp
C
wind
direction
speed
KPH
gust
KPH
rain 1hr
cm
rain 24hr
cm
rain mn
cm
humidity
%
barometer
mb
20260508142532 15 92 0.0 6.4 0.00 2.26 0.00 78 1017.7
20260508142030 15 0 1.6 6.4 0.00 2.26 0.00 79 1017.7
20260508141539 15 82 1.6 4.8 0.00 2.26 0.00 79 1017.7
20260508141031 15 0 0.0 6.4 0.00 2.26 0.00 80 1017.7
20260508140531 14 0 0.0 6.4 0.00 2.26 0.00 80 1017.6
20260508140042 14 28 0.0 8.0 0.00 2.26 0.00 81 1017.6
20260508135532 14 41 1.6 8.0 0.00 2.64 0.00 80 1017.7
20260508135030 14 44 3.2 8.0 0.00 2.64 0.00 81 1017.8
20260508134545 14 51 3.2 6.4 0.00 2.64 0.00 82 1017.6
20260508134029 13 26 0.0 4.8 0.00 2.64 0.00 84 1017.7
20260508133532 13 5 0.0 4.8 0.00 2.64 0.00 84 1017.7
20260508133043 13 5 1.6 4.8 0.00 2.64 0.00 84 1017.9
20260508132529 13 360 0.0 4.8 0.00 2.64 0.00 85 1017.9
20260508132030 13 0 0.0 1.6 0.00 2.64 0.00 86 1017.9
20260508131542 12 0 0.0 4.8 0.00 2.64 0.00 87 1017.8
20260508131030 12 0 0.0 4.8 0.00 2.64 0.00 87 1017.9
20260508130531 12 325 1.6 4.8 0.00 2.64 0.00 88 1017.9
20260508130036 12 325 1.6 3.2 0.00 2.64 0.00 88 1018.0
20260508125528 12 0 0.0 3.2 0.00 2.97 0.00 90 1018.0
20260508125030 11 0 0.0 0.0 0.00 2.97 0.00 91 1017.9
20260508124540 11 0 0.0 0.0 0.00 2.97 0.00 91 1017.8
20260508124029 11 0 0.0 3.2 0.00 2.97 0.00 92 1017.7
20260508123529 11 0 0.0 3.2 0.00 2.97 0.00 92 1017.8
20260508123040 11 328 0.0 3.2 0.00 2.97 0.00 92 1017.8
20260508122529 11 0 0.0 4.8 0.00 2.97 0.00 91 1017.9
20260508122030 10 329 1.6 4.8 0.00 2.97 0.00 92 1017.9
20260508121543 10 329 1.6 3.2 0.00 2.97 0.00 93 1017.8
20260508121028 10 330 0.0 3.2 0.00 2.97 0.00 93 1017.7
20260508120528 10 0 0.0 3.2 0.00 2.97 0.00 93 1017.6
20260508120044 10 0 0.0 0.0 0.00 2.97 0.00 94 1017.5
20260508115528 10 0 0.0 1.6 0.00 3.33 0.00 93 1017.4
20260508115027 10 0 0.0 1.6 0.00 3.33 0.00 93 1017.1
20260508114550 10 0 0.0 0.0 0.00 3.33 0.00 93 1017.1
20260508114030 9 0 0.0 0.0 0.00 3.33 0.00 93 1016.9
20260508113531 9 0 0.0 0.0 0.00 3.33 0.00 93 1016.7
20260508113043 9 0 0.0 0.0 0.00 3.33 0.00 93 1016.6
20260508112529 9 0 0.0 3.2 0.00 3.33 0.00 93 1016.4
20260508112031 9 0 0.0 3.2 0.00 3.33 0.00 92 1016.3
20260508111556 9 0 0.0 3.2 0.00 3.33 0.00 92 1016.2
20260508111030 9 332 0.0 3.2 0.00 3.33 0.00 92 1016.3
20260508110530 9 0 0.0 0.0 0.00 3.33 0.00 92 1016.2
20260508110040 9 0 0.0 0.0 0.00 3.33 0.00 92 1016.2
20260508105528 9 0 0.0 0.0 0.00 3.61 0.00 92 1016.2
20260508105030 10 0 0.0 0.0 0.00 3.61 0.00 92 1016.0
20260508104541 10 0 0.0 0.0 0.00 3.61 0.00 92 1015.9
20260508104028 10 0 0.0 0.0 0.00 3.61 0.00 92 1015.8
20260508103528 10 0 0.0 0.0 0.00 3.61 0.00 92 1015.7
20260508103041 10 0 0.0 0.0 0.00 3.61 0.00 92 1015.6
20260508102530 10 0 0.0 0.0 0.00 3.61 0.00 92 1015.5
20260508102028 10 0 0.0 0.0 0.00 3.61 0.00 93 1015.5
20260508101537 10 0 0.0 0.0 0.00 3.61 0.00 92 1015.3
20260508101029 9 0 0.0 0.0 0.00 3.61 0.00 92 1015.3
20260508100528 10 0 0.0 0.0 0.00 3.61 0.00 91 1015.2
20260508100038 10 0 0.0 0.0 0.00 3.61 0.00 91 1015.2
20260508095530 10 0 0.0 0.0 0.00 3.91 0.00 91 1015.1
20260508095033 10 0 0.0 0.0 0.00 3.91 0.00 91 1015.1
20260508094545 10 0 0.0 0.0 0.00 3.91 0.00 91 1015.2
20260508094030 10 0 0.0 0.0 0.00 3.91 0.00 91 1015.2
20260508093532 10 0 0.0 0.0 0.00 3.91 0.00 91 1015.1
20260508093042 10 0 0.0 0.0 0.00 3.91 0.00 91 1015.0
20260508092532 10 0 0.0 0.0 0.00 3.91 0.00 91 1014.9
20260508092032 10 0 0.0 0.0 0.00 3.91 0.00 91 1015.0
20260508091544 10 0 0.0 0.0 0.00 3.91 0.00 91 1014.9
20260508091032 10 0 0.0 0.0 0.00 3.91 0.00 91 1014.9
20260508090533 10 0 0.0 0.0 0.00 3.91 0.00 91 1014.8
20260508090036 10 0 0.0 0.0 0.00 3.91 0.00 91 1014.7
20260508085530 10 0 0.0 0.0 0.00 4.27 0.00 91 1014.6
20260508085029 10 0 0.0 3.2 0.00 4.27 0.00 91 1014.7
20260508084541 10 0 0.0 4.8 0.00 4.27 0.00 91 1014.8
20260508084032 10 0 0.0 4.8 0.00 4.27 0.00 91 1014.7
20260508083531 10 333 1.6 4.8 0.00 4.27 0.00 91 1014.7
20260508083048 10 333 1.6 4.8 0.00 4.27 0.00 91 1014.7
20260508082534 11 333 1.6 4.8 0.00 4.27 0.00 91 1014.6
20260508082030 11 332 0.0 3.2 0.00 4.27 0.00 91 1014.6
20260508081546 11 0 0.0 0.0 0.00 4.27 0.00 91 1014.6
20260508081031 11 0 0.0 0.0 0.00 4.27 0.00 91 1014.6
20260508080531 11 0 0.0 1.6 0.00 4.27 0.00 91 1014.7
20260508080053 11 0 0.0 3.2 0.00 4.27 0.00 91 1014.6
20260508075531 11 0 0.0 3.2 0.00 4.65 0.00 91 1014.6
20260508075031 11 332 1.6 3.2 0.00 4.65 0.00 90 1014.7
20260508074543 11 332 0.0 3.2 0.00 4.65 0.00 90 1014.7
20260508074032 11 0 0.0 0.0 0.00 4.65 0.00 90 1014.8
20260508073532 11 0 0.0 3.2 0.00 4.65 0.00 90 1014.7
20260508073045 11 0 0.0 3.2 0.00 4.65 0.00 89 1014.7
20260508072531 11 331 1.6 3.2 0.00 4.65 0.00 89 1014.7
20260508072031 11 331 1.6 3.2 0.00 4.65 0.00 89 1014.8
20260508071540 12 331 1.6 3.2 0.00 4.65 0.00 89 1014.8
20260508071033 12 0 0.0 3.2 0.00 4.65 0.00 88 1015.0
20260508070533 12 0 0.0 3.2 0.00 4.65 0.00 89 1015.0
20260508070042 12 0 0.0 3.2 0.00 4.65 0.00 89 1015.1
20260508065530 12 0 0.0 3.2 0.00 5.05 0.00 89 1015.0
20260508065031 12 332 0.0 3.2 0.00 5.05 0.00 89 1015.0
20260508064541 12 0 0.0 3.2 0.00 5.05 0.00 89 1015.0
20260508064032 12 0 0.0 4.8 0.00 5.05 0.00 89 1014.9
20260508063532 12 331 1.6 4.8 0.00 5.05 0.00 89 1015.0
20260508063040 12 329 0.0 4.8 0.00 5.05 0.00 89 1015.1
20260508062531 12 0 0.0 4.8 0.00 5.05 0.00 89 1015.2
20260508062030 12 329 0.0 4.8 0.00 5.05 0.00 89 1015.2
20260508061543 12 0 0.0 0.0 0.00 5.05 0.00 89 1015.2
20260508061035 12 0 0.0 0.0 0.00 5.05 0.00 89 1015.2
20260508060531 12 0 0.0 0.0 0.00 5.05 0.00 89 1015.1
20260508060037 12 0 0.0 0.0 0.00 5.05 0.00 89 1015.2
20260508055532 12 0 0.0 0.0 0.00 5.51 0.00 90 1015.3
20260508055033 13 0 0.0 0.0 0.00 5.51 0.00 89 1015.2
20260508054545 13 0 0.0 0.0 0.00 5.51 0.00 90 1015.1
20260508054031 13 0 0.0 3.2 0.00 5.51 0.00 90 1015.1
20260508053530 13 0 0.0 3.2 0.00 5.51 0.00 90 1015.3
20260508053047 13 0 0.0 1.6 0.00 5.51 0.00 90 1015.2
20260508052534 13 0 0.0 1.6 0.00 5.51 0.00 90 1015.1
20260508052031 13 0 0.0 3.2 0.00 5.51 0.00 90 1015.0
20260508051545 13 0 0.0 3.2 0.00 5.51 0.00 90 1015.1
20260508051032 13 0 0.0 4.8 0.00 5.51 0.00 90 1015.1
20260508050530 13 0 0.0 4.8 0.00 5.51 0.00 90 1015.3
20260508050042 13 331 0.0 4.8 0.00 5.51 0.00 90 1015.3
20260508045531 13 0 0.0 4.8 0.00 5.92 0.00 90 1015.4
20260508045030 13 333 0.0 3.2 0.00 5.92 0.00 90 1015.3
20260508044536 13 0 0.0 3.2 0.00 5.92 0.00 90 1015.2
20260508044031 13 0 0.0 3.2 0.00 5.92 0.00 90 1015.2
20260508043533 13 0 0.0 3.2 0.00 5.92 0.00 90 1015.2
20260508043049 13 0 0.0 3.2 0.00 5.92 0.00 90 1015.1
20260508042532 13 0 0.0 3.2 0.00 5.92 0.00 90 1015.1
20260508042031 13 340 0.0 3.2 0.00 5.92 0.00 90 1015.1
20260508041541 13 0 0.0 3.2 0.00 5.92 0.00 90 1015.1
20260508041030 13 340 0.0 6.4 0.00 5.92 0.00 90 1015.1
20260508040533 13 0 0.0 6.4 0.00 5.92 0.00 89 1014.8
20260508040051 13 0 0.0 1.6 0.00 5.92 0.00 89 1014.9
20260508035534 13 0 0.0 0.0 0.00 6.30 5.92 90 1014.7
20260508035033 13 0 0.0 1.6 0.00 6.30 5.92 89 1014.7
20260508034549 13 0 0.0 3.2 0.00 6.30 5.92 89 1014.9
20260508034030 13 0 0.0 3.2 0.00 6.30 5.92 89 1014.7
20260508033530 13 0 0.0 3.2 0.00 6.30 5.92 89 1014.7
20260508033109 13 0 0.0 0.0 0.00 6.30 5.92 89 1014.9
20260508032531 13 0 0.0 0.0 0.00 6.30 5.92 88 1014.8
20260508032032 14 0 0.0 0.0 0.00 6.30 5.92 88 1014.9
20260508031541 14 0 0.0 0.0 0.00 6.30 5.92 88 1014.8
20260508031031 14 0 0.0 3.2 0.00 6.30 5.92 88 1014.8
20260508030531 14 0 0.0 3.2 0.00 6.30 5.92 88 1014.9
20260508030040 14 0 0.0 3.2 0.00 6.30 5.92 88 1014.7
20260508025531 14 0 0.0 0.0 0.00 6.63 5.92 88 1014.6
20260508025030 14 0 0.0 0.0 0.00 6.63 5.92 88 1014.6
20260508024537 14 0 0.0 0.0 0.00 6.63 5.92 88 1014.5
20260508024031 14 0 0.0 0.0 0.00 6.63 5.92 87 1014.6
20260508023531 15 0 0.0 0.0 0.00 6.63 5.92 87 1014.6
20260508023043 15 0 0.0 0.0 0.00 6.63 5.92 87 1014.7
20260508022531 15 0 0.0 0.0 0.00 6.63 5.92 87 1014.6
20260508022032 15 0 0.0 0.0 0.00 6.63 5.92 87 1014.7
20260508021541 15 0 0.0 0.0 0.00 6.63 5.92 86 1014.6
20260508021031 15 0 0.0 1.6 0.00 6.63 5.92 86 1014.6
20260508020530 15 0 0.0 1.6 0.00 6.63 5.92 85 1014.4
20260508020041 15 0 0.0 1.6 0.00 6.63 5.92 85 1014.4
20260508015531 15 0 0.0 0.0 0.00 6.96 5.92 85 1014.4
20260508015032 15 0 0.0 0.0 0.00 6.96 5.92 84 1014.3
20260508014540 15 0 0.0 0.0 0.00 6.96 5.92 84 1014.3
20260508014031 16 0 0.0 0.0 0.00 6.96 5.92 84 1014.2
20260508013531 16 0 0.0 0.0 0.00 6.96 5.92 84 1014.1
20260508013042 16 0 0.0 0.0 0.00 6.96 5.92 83 1014.1
20260508012531 16 0 0.0 0.0 0.00 6.96 5.92 83 1013.9
20260508012031 16 0 0.0 0.0 0.00 6.96 5.92 82 1014.2
20260508011545 16 0 0.0 0.0 0.00 6.96 5.92 82 1014.1
20260508011032 16 0 0.0 1.6 0.00 6.96 5.92 82 1014.1
20260508010531 16 0 0.0 1.6 0.00 6.96 5.92 82 1014.0
20260508010042 16 0 0.0 4.8 0.00 6.96 5.92 82 1013.9
20260508005531 16 0 0.0 4.8 0.00 7.42 5.92 82 1013.9
20260508005031 16 347 1.6 6.4 0.00 7.42 5.92 82 1013.9
20260508004542 16 0 1.6 8.0 0.03 7.42 5.92 82 1013.9
20260508004032 16 0 3.2 8.0 0.03 7.42 5.92 82 1013.8
20260508003531 16 328 1.6 8.0 0.03 7.42 5.92 81 1013.7
20260508003040 17 0 1.6 8.0 0.03 7.42 5.92 82 1013.7
20260508002530 17 264 0.0 4.8 0.03 7.42 5.92 82 1013.7
20260508002034 17 0 1.6 8.0 0.03 7.42 5.92 82 1013.6
20260508001540 17 261 3.2 8.0 0.03 7.42 5.92 82 1013.5
20260508001030 17 324 1.6 8.0 0.05 7.42 5.92 82 1013.5
20260508000533 17 0 0.0 6.4 0.05 7.42 5.92 82 1013.4
20260508000047 17 0 0.0 6.4 0.05 7.42 5.92 82 1013.3
20260507235534 17 310 1.6 6.4 0.05 8.20 5.92 81 1013.3
20260507235031 17 0 0.0 4.8 0.05 8.20 5.92 81 1013.4
20260507234549 17 0 1.6 4.8 0.05 8.18 5.92 81 1013.3
20260507234031 17 0 0.0 11.3 0.05 8.18 5.92 81 1013.2
20260507233531 17 311 3.2 11.3 0.05 8.18 5.92 81 1013.3
20260507233042 17 292 3.2 8.0 0.05 8.18 5.92 80 1013.2
20260507232532 17 321 0.0 8.0 0.05 8.18 5.92 80 1013.2
20260507232031 17 316 3.2 12.9 0.08 8.18 5.92 80 1013.2
20260507231547 17 328 3.2 12.9 0.08 8.18 5.92 80 1013.0
20260507231032 17 315 4.8 14.5 0.05 8.15 5.89 79 1013.1
20260507230531 18 317 0.0 14.5 0.05 8.15 5.89 79 1013.1
20260507230042 18 294 3.2 14.5 0.08 8.15 5.89 79 1013.1
20260507225530 18 312 3.2 12.9 0.08 8.20 5.89 79 1013.1
20260507225033 18 330 4.8 12.9 0.08 8.20 5.89 79 1013.0
20260507224547 18 350 3.2 12.9 0.08 8.18 5.87 79 1012.9
20260507224030 18 0 3.2 12.9 0.08 8.18 5.87 79 1013.0
20260507223532 18 309 1.6 9.7 0.08 8.18 5.87 80 1013.0
20260507223042 18 0 0.0 14.5 0.08 8.18 5.87 79 1012.8
20260507222530 18 291 3.2 14.5 0.10 8.18 5.87 78 1012.8
20260507222030 18 339 3.2 14.5 0.08 8.15 5.84 79 1012.6
20260507221541 18 318 6.4 14.5 0.08 8.15 5.84 80 1012.7
20260507221033 18 11 3.2 12.9 0.10 8.15 5.84 81 1012.7
20260507220530 18 242 3.2 12.9 0.08 8.13 5.82 81 1012.8
20260507220040 18 0 3.2 8.0 0.10 8.13 5.82 81 1012.7
20260507215531 18 5 3.2 16.1 0.10 8.13 5.82 81 1012.7
20260507215031 18 0 4.8 16.1 0.10 8.13 5.82 81 1012.5
20260507214540 18 338 3.2 12.9 0.10 8.10 5.79 81 1012.5
20260507214031 18 323 4.8 12.9 0.10 8.10 5.79 81 1012.6
20260507213530 18 275 3.2 12.9 0.13 8.10 5.79 81 1012.4
20260507213053 18 344 4.8 12.9 0.13 8.10 5.79 81 1012.5
20260507212531 18 300 3.2 12.9 0.13 8.08 5.77 81 1012.4
20260507212032 18 311 1.6 9.7 0.13 8.08 5.77 82 1012.6
20260507211543 18 360 1.6 16.1 0.13 8.05 5.74 83 1012.4
20260507211031 18 286 3.2 16.1 0.13 8.05 5.74 82 1012.4
20260507210529 18 221 6.4 16.1 0.15 8.05 5.74 81 1012.2
20260507210045 18 231 4.8 16.1 0.15 8.03 5.71 81 1012.1
20260507205529 18 220 6.4 16.1 0.15 8.03 5.71 82 1012.3
20260507205028 18 5 4.8 16.1 0.15 8.00 5.69 81 1012.4
20260507204542 18 213 6.4 16.1 0.15 8.00 5.69 82 1012.3
20260507204028 18 9 4.8 16.1 0.18 8.00 5.69 82 1012.3
20260507203530 18 333 4.8 14.5 0.18 7.98 5.66 83 1012.3
20260507203044 17 340 6.4 17.7 0.18 7.98 5.66 83 1012.4
20260507202531 17 22 3.2 17.7 0.18 7.95 5.64 84 1012.3
20260507202031 17 351 3.2 12.9 0.20 7.95 5.64 84 1012.3
20260507201539 17 315 3.2 16.1 0.18 7.92 5.61 84 1012.4
20260507201032 17 304 3.2 16.1 0.18 7.90 5.59 84 1012.5
20260507200532 17 289 4.8 17.7 0.20 7.90 5.59 84 1012.8
20260507200043 18 119 4.8 17.7 0.20 7.87 5.56 84 1012.6
20260507195531 18 351 4.8 17.7 0.20 7.87 5.56 85 1012.4
20260507195031 17 182 4.8 16.1 0.20 7.85 5.54 85 1012.5
20260507194540 17 0 3.2 16.1 0.20 7.82 5.51 86 1012.5
20260507194028 17 323 4.8 16.1 0.23 7.82 5.51 85 1012.5
20260507193528 17 307 1.6 16.1 0.23 7.80 5.49 86 1012.6
20260507193050 17 313 4.8 16.1 0.23 7.80 5.49 85 1012.7
20260507192528 17 285 6.4 17.7 0.23 7.77 5.46 86 1012.6
20260507192032 17 352 4.8 17.7 0.23 7.75 5.44 86 1012.7
20260507191540 17 329 3.2 14.5 0.25 7.75 5.44 86 1012.7
20260507191029 17 267 3.2 9.7 0.25 7.72 5.41 87 1012.6
20260507190532 17 315 3.2 16.1 0.25 7.70 5.36 87 1012.6
20260507190037 17 319 3.2 17.7 0.25 7.67 5.33 88 1012.7
20260507185531 17 269 6.4 17.7 0.25 7.67 5.33 87 1012.7
20260507185029 17 286 3.2 12.9 0.25 7.65 5.31 88 1012.8
20260507184542 17 219 3.2 16.1 0.25 7.62 5.28 88 1012.7
20260507184028 17 294 4.8 16.1 0.25 7.59 5.28 89 1012.9
20260507183528 16 243 3.2 12.9 0.25 7.57 5.26 90 1012.9
20260507183044 16 265 4.8 12.9 0.28 7.57 5.26 89 1012.9
20260507182531 16 280 4.8 14.5 0.28 7.54 5.23 91 1012.9
20260507182029 16 311 3.2 16.1 0.28 7.52 5.21 90 1013.0
20260507181540 16 300 8.0 16.1 0.28 7.49 5.18 90 1013.2
20260507181029 16 335 6.4 16.1 0.28 7.47 5.16 90 1013.2
20260507180531 16 342 3.2 9.7 0.25 7.44 5.13 91 1013.1
20260507180039 16 309 3.2 16.1 0.25 7.42 5.11 91 1013.0
20260507175531 16 323 1.6 16.1 0.25 7.39 5.08 91 1013.1
20260507175028 16 242 6.4 19.3 0.28 7.39 5.08 90 1013.0
20260507174538 16 321 8.0 19.3 0.28 7.37 5.05 91 1013.1
20260507174030 17 336 3.2 16.1 0.28 7.34 5.03 91 1013.0
20260507173528 17 321 3.2 16.1 0.30 7.32 5.00 91 1013.1
20260507173045 17 277 3.2 20.9 0.30 7.29 4.98 92 1013.0
20260507172530 17 315 4.8 22.5 0.30 7.26 4.95 91 1012.9
20260507172032 17 306 8.0 22.5 0.30 7.24 4.93 91 1013.0
20260507171555 17 336 4.8 19.3 0.30 7.21 4.90 91 1013.0
20260507171034 17 257 4.8 17.7 0.30 7.19 4.88 90 1012.8
20260507170533 17 329 4.8 17.7 0.30 7.16 4.85 90 1012.8
20260507170044 17 319 4.8 16.1 0.30 7.14 4.83 92 1012.7
20260507165528 17 276 6.4 14.5 0.30 7.11 4.80 92 1012.7
20260507165030 17 289 4.8 14.5 0.36 7.11 4.80 91 1012.6
20260507164539 17 275 3.2 14.5 0.33 7.06 4.75 92 1012.5
20260507164029 17 195 4.8 20.9 0.33 7.04 4.72 92 1012.6
20260507163528 17 320 1.6 20.9 0.33 7.01 4.70 92 1012.5
20260507163039 17 351 6.4 20.9 0.36 6.99 4.67 93 1012.7
20260507162528 17 309 3.2 12.9 0.36 6.96 4.65 93 1012.4
20260507162032 17 277 3.2 14.5 0.36 6.93 4.62 93 1012.4
20260507161540 17 325 4.8 14.5 0.38 6.91 4.60 93 1012.6
20260507161028 17 309 4.8 12.9 0.38 6.88 4.57 93 1012.6
20260507160528 17 348 4.8 17.7 0.41 6.86 4.55 94 1012.4
20260507160047 17 326 3.2 19.3 0.41 6.83 4.52 94 1012.4
20260507155529 17 352 4.8 19.3 0.38 6.78 4.47 94 1012.3
20260507155031 17 324 4.8 17.7 0.41 6.76 4.45 94 1012.3
20260507154542 17 299 8.0 17.7 0.41 6.73 4.42 94 1012.2
20260507154031 17 5 1.6 6.4 0.41 6.71 4.39 95 1012.1
20260507153530 17 192 1.6 8.0 0.41 6.65 4.34 95 1012.0
20260507153038 17 307 1.6 9.7 0.41 6.63 4.32 95 1012.0
20260507152528 17 314 3.2 14.5 0.43 6.60 4.29 95 1011.9
20260507152028 17 323 3.2 14.5 0.41 6.55 4.24 95 1011.9
20260507151544 17 232 1.6 9.7 0.41 6.53 4.22 95 1012.0
20260507151029 17 317 3.2 14.5 0.43 6.50 4.19 95 1011.8
20260507150531 17 296 3.2 14.5 0.41 6.45 4.14 95 1011.9
20260507150041 17 303 3.2 12.9 0.43 6.43 4.11 95 1011.7
20260507145534 17 319 3.2 12.9 0.43 6.40 4.09 95 1011.8
20260507145028 17 276 3.2 12.9 0.43 6.35 4.04 95 1012.0
20260507144604 17 319 3.2 11.3 0.43 6.32 4.01 95 1011.6
20260507144033 17 13 3.2 11.3 0.41 6.27 3.96 96 1011.6
20260507143528 17 0 1.6 11.3 0.41 6.25 3.94 96 1011.8
20260507143040 17 306 1.6 11.3 0.43 6.22 3.91 96 1011.8